Weather reports worldwide

Advertisment
Cagliari/Elmas, Italy (16560): temperature & dewpoint: 29.03.2020 01:00:00 - 04.04.2020 01:00:00 (CEST)Cagliari/Elmas, Italy (16560): wind speed: 29.03.2020 01:00:00 - 04.04.2020 01:00:00 (CEST)Cagliari/Elmas, Italy (16560): wind direction: 29.03.2020 01:00:00 - 04.04.2020 01:00:00 (CEST)Cagliari/Elmas, Italy (16560): reduced air pressure: 29.03.2020 01:00:00 - 04.04.2020 01:00:00 (CEST)Cagliari/Elmas, Italy (16560): visibility: 29.03.2020 01:00:00 - 04.04.2020 01:00:00 (CEST)Cagliari/Elmas, Italy (16560): precipitation: 29.03.2020 01:00:00 - 04.04.2020 01:00:00 (CEST)
Date & Time tt [°C] td [°C] ff [km/h] ff [kn] dd ppp [hPa] vv [km] rr [mm]
04.04.2020 01:00:00 11,0 10,0 9 5 N - 10 -
04.04.2020 00:00:00 12,0 11,0 5 3 WNW - 10 -
03.04.2020 23:00:00 12,8 10,2 5 3 SW 1014,7 10 0,0
03.04.2020 22:00:00 13,0 10,0 5 3 S - 10 -
03.04.2020 21:00:00 - - - - - - - -
03.04.2020 20:00:00 12,3 10,3 5 3 ENE 1013,0 - -
03.04.2020 19:00:00 - - - - - - - -
03.04.2020 18:00:00 - - - - - - - -
03.04.2020 17:00:00 14,1 8,8 8 4 S 1011,7 - 0,0
03.04.2020 16:00:00 - - - - - - - -
03.04.2020 15:00:00 - - - - - - - -
03.04.2020 14:00:00 14,1 8,7 13 7 S 1012,3 10 -
03.04.2020 13:00:00 15,0 9,0 11 6 SSW - 10 -
03.04.2020 12:00:00 14,0 8,0 8 4 S - 10 -
03.04.2020 11:00:00 14,4 8,7 4 2 - 1011,9 10 0,0
03.04.2020 10:00:00 12,0 9,0 11 6 NW - 10 -
03.04.2020 09:00:00 11,0 10,0 11 6 W - 10 -
03.04.2020 08:00:00 10,2 9,5 5 3 NW 1011,3 10 -
03.04.2020 07:00:00 10,0 9,0 8 4 N - 10 -
03.04.2020 06:00:00 10,0 9,0 5 3 NNW - 10 -
03.04.2020 05:00:00 10,4 9,1 4 2 - 1010,9 10 0,0
03.04.2020 04:00:00 10,0 9,0 8 4 NE - 10 -
03.04.2020 03:00:00 10,0 9,0 4 2 NNE - 10 -
03.04.2020 02:00:00 9,6 8,9 5 3 NNW 1012,0 10 -
03.04.2020 01:00:00 9,0 8,0 4 2 - - 10 -
03.04.2020 00:00:00 10,0 9,0 11 6 E - 10 -
02.04.2020 23:00:00 11,4 9,5 16 9 SSE 1012,3 10 0,0
02.04.2020 22:00:00 11,0 9,0 9 5 SSE - 10 -
02.04.2020 21:00:00 11,0 9,0 16 9 ESE - 10 -
02.04.2020 20:00:00 11,6 9,9 11 6 ESE 1011,6 10 -
02.04.2020 19:00:00 11,0 10,0 5 3 SSW - 10 -
02.04.2020 18:00:00 13,0 8,0 13 7 S - 10 -
02.04.2020 17:00:00 14,3 7,9 15 8 S 1011,4 10 0,0
02.04.2020 16:00:00 15,0 7,0 11 6 S - 10 -
02.04.2020 15:00:00 15,0 7,0 16 9 SSE - 10 -
02.04.2020 14:00:00 15,0 7,8 21 11 SE 1012,8 10 -
02.04.2020 13:00:00 14,0 7,0 16 9 SSE - 10 -
02.04.2020 12:00:00 13,0 7,0 13 7 SSE - 10 -
02.04.2020 11:00:00 12,9 5,3 13 7 E 1013,7 10 0,0
02.04.2020 10:00:00 12,0 6,0 9 5 SE - 10 -
02.04.2020 09:00:00 11,0 5,0 13 7 ESE - 10 -
02.04.2020 08:00:00 9,9 5,3 5 3 ENE 1013,4 10 -
02.04.2020 07:00:00 10,0 4,0 8 4 ENE - 10 -
02.04.2020 06:00:00 10,0 4,0 11 6 E - 10 -
02.04.2020 05:00:00 10,1 3,9 15 8 E 1013,7 10 0,0
02.04.2020 04:00:00 10,0 3,0 15 8 E - 10 -
02.04.2020 03:00:00 11,0 3,0 15 8 E - 10 -
02.04.2020 02:00:00 10,6 3,0 16 9 E 1015,1 10 -
02.04.2020 01:00:00 11,0 4,0 16 9 E - 10 -
02.04.2020 00:00:00 11,0 3,0 21 11 E - 10 -
01.04.2020 23:00:00 10,5 3,4 21 11 E 1016,1 10 0,0
01.04.2020 22:00:00 11,0 4,0 22 12 E - 10 -
01.04.2020 21:00:00 11,0 5,0 15 8 E - 10 -
01.04.2020 20:00:00 11,6 4,4 4 2 - 1014,6 10 -
01.04.2020 19:00:00 13,0 3,0 13 7 E - 10 -
01.04.2020 18:00:00 14,0 3,0 22 12 E - 10 -
01.04.2020 17:00:00 14,7 3,1 9 5 SSE 1015,4 10 0,0
01.04.2020 16:00:00 15,0 4,0 9 5 S - 10 -
01.04.2020 15:00:00 15,0 5,0 9 5 S - 10 -
01.04.2020 14:00:00 17,2 4,2 11 6 SE 1015,8 10 -
01.04.2020 13:00:00 17,0 5,0 9 5 - - 10 -
01.04.2020 12:00:00 15,0 6,0 9 5 ENE - 10 -
01.04.2020 11:00:00 14,5 6,3 5 3 N 1016,9 10 0,0
01.04.2020 10:00:00 13,0 7,0 11 6 NNW - 10 -
01.04.2020 09:00:00 12,0 4,0 9 5 E - 10 -
01.04.2020 08:00:00 11,6 6,6 9 5 W 1015,9 10 -
01.04.2020 07:00:00 12,0 5,0 21 11 E - 10 -
01.04.2020 06:00:00 12,0 6,0 22 12 E - 10 -
01.04.2020 05:00:00 13,1 9,3 16 9 E 1015,1 9 0,0
01.04.2020 04:00:00 13,0 12,0 5 3 SSW - 10 -
01.04.2020 03:00:00 13,0 12,0 5 3 NE - 9 -
01.04.2020 02:00:00 13,0 12,0 5 3 N 1015,6 10 -
01.04.2020 01:00:00 14,0 12,0 8 4 WSW - 10 -
01.04.2020 00:00:00 14,0 13,0 4 2 ENE - 10 -
31.03.2020 23:00:00 13,5 12,6 5 3 ENE 1015,5 10 0,0
31.03.2020 22:00:00 15,0 12,0 4 2 - - 10 -
31.03.2020 21:00:00 15,0 13,0 21 11 SSW - 10 -
31.03.2020 20:00:00 14,4 12,9 15 8 S 1014,1 10 -
31.03.2020 19:00:00 15,0 13,0 13 7 S - 10 -
31.03.2020 18:00:00 16,0 12,0 13 7 S - 10 -
31.03.2020 17:00:00 15,8 11,1 11 6 S 1014,0 10 0,0
31.03.2020 16:00:00 16,0 10,0 15 8 SE - 10 -
31.03.2020 15:00:00 17,0 10,0 18 10 SSE - 10 -
31.03.2020 14:00:00 18,4 10,6 13 7 S 1014,7 10 -
31.03.2020 13:00:00 17,0 10,0 11 6 S - 10 -
31.03.2020 12:00:00 16,0 10,0 5 3 S - 10 -
31.03.2020 11:00:00 14,8 10,2 5 3 NW 1015,6 10 0,0
31.03.2020 10:00:00 11,0 9,0 8 4 NW - 10 -
31.03.2020 09:00:00 8,0 8,0 9 5 N - 6 -
31.03.2020 08:00:00 7,4 7,3 8 4 WNW 1015,3 6 -
31.03.2020 07:00:00 7,0 7,0 9 5 NNW - 8 -
31.03.2020 06:00:00 - - - - - - - -
31.03.2020 05:00:00 7,9 7,9 8 4 NW 1014,6 10 0,0
31.03.2020 04:00:00 8,0 8,0 9 5 NNW - 10 -
31.03.2020 03:00:00 9,0 9,0 9 5 NNW - 10 -
31.03.2020 02:00:00 10,1 9,8 9 5 W 1015,1 10 -
31.03.2020 01:00:00 10,0 9,0 2 1 - - 10 -
31.03.2020 00:00:00 11,0 10,0 8 4 NNW - 10 -
30.03.2020 23:00:00 11,3 10,1 13 7 NNW 1015,1 10 0,0
30.03.2020 22:00:00 12,0 10,0 16 9 N - 10 -
30.03.2020 21:00:00 13,0 10,0 15 8 NNW - 10 -
30.03.2020 20:00:00 13,4 9,6 15 8 NNW 1013,4 10 -
30.03.2020 19:00:00 16,0 9,0 18 10 NNW - 10 -
30.03.2020 18:00:00 18,0 9,0 21 11 NW - 10 -
30.03.2020 17:00:00 19,1 8,8 11 6 WNW 1011,8 10 0,0
30.03.2020 16:00:00 16,0 12,0 8 4 SE - 10 -
30.03.2020 15:00:00 16,0 13,0 8 4 S - 10 -
30.03.2020 14:00:00 14,1 11,6 9 5 S 1013,1 10 -
30.03.2020 13:00:00 17,0 10,0 8 4 - - 10 -
30.03.2020 12:00:00 16,0 10,0 5 3 WNW - 10 -
30.03.2020 11:00:00 13,7 10,2 9 5 N 1013,7 10 0,0
30.03.2020 10:00:00 11,0 10,0 8 4 NNE - 10 -
30.03.2020 09:00:00 9,0 9,0 8 4 NNW - 10 -
30.03.2020 08:00:00 8,5 8,5 9 5 NW 1012,6 10 -
30.03.2020 07:00:00 9,0 9,0 9 5 NNW - 10 -
30.03.2020 06:00:00 9,0 9,0 9 5 NW - 10 -
30.03.2020 05:00:00 8,9 8,7 5 3 N 1012,5 10 0,0
30.03.2020 04:00:00 9,0 9,0 9 5 NW - 10 -
30.03.2020 03:00:00 10,0 9,0 9 5 NNE - 10 -
30.03.2020 02:00:00 8,9 8,6 5 3 N 1013,3 10 -
30.03.2020 01:00:00 9,0 9,0 8 4 NNW - 10 -
30.03.2020 00:00:00 9,0 9,0 9 5 NW - 10 -
29.03.2020 23:00:00 10,2 9,4 9 5 NW 1013,7 10 0,0
29.03.2020 22:00:00 11,0 10,0 9 5 WNW - 10 -
29.03.2020 21:00:00 11,0 10,0 9 5 W - 10 -
29.03.2020 20:00:00 11,2 9,0 8 4 - 1014,0 10 -
29.03.2020 19:00:00 12,0 9,0 18 10 ENE - 10 -
29.03.2020 18:00:00 13,0 9,0 24 13 NNE - 8 -
29.03.2020 17:00:00 15,4 10,1 8 4 S 1012,5 10 0,0
29.03.2020 16:00:00 14,0 10,0 16 9 SSE - 10 -
29.03.2020 15:00:00 14,0 11,0 21 11 SSE - 10 -
29.03.2020 14:00:00 18,7 7,6 9 5 SSW 1013,2 10 -
29.03.2020 13:00:00 17,0 10,0 11 6 WSW - 10 -
29.03.2020 12:00:00 15,0 10,0 11 6 W - 10 -
29.03.2020 11:00:00 13,0 9,8 11 6 WNW 1014,7 10 0,0
29.03.2020 10:00:00 10,0 9,0 8 4 NW - 10 -
29.03.2020 09:00:00 8,0 8,0 11 6 NW - 10 -
29.03.2020 08:00:00 7,2 7,2 11 6 NW 1014,8 10 -
29.03.2020 07:00:00 6,0 6,0 9 5 NNW - 10 -
29.03.2020 06:00:00 - - - - - - - -
29.03.2020 05:00:00 7,0 7,0 8 4 NW 1015,0 10 0,0
29.03.2020 04:00:00 8,0 8,0 5 3 NNW - 10 -
29.03.2020 03:00:00 8,0 8,0 8 4 N - 10 -
29.03.2020 02:00:00 9,0 8,5 5 3 WNW 1016,1 10 -
29.03.2020 01:00:00 - - - - - - - -

tt = temperature
td = dewpoint
ff = wind speed
dd = wind direction
ppp = reduced air pressure
vv = visibility
rr = precipitation

Next stations